STARLINK-1720 (46675 NORAD) Tracking and Keplerian Element Data

This shows tracking and keplerian element data for the satellite.

Feedback or suggestion? Click here.




ElementValue
Catalog46675
NameSTARLINK-1720
Epoch Orbit179
Epoch Day17.91667824
Epoch Year2021
RAAN26.7661
Inclination53.0541
Eccentricity0.0001074
Argument of Perigee57.7913
Mean Anonmoly79.0045
Mean Motion15.06384419
Decay Rate0.00037184
L11 46675U 20073F 21017.91667824 .00037184 00000-0 25031-2 0 9990
L22 46675 53.0541 26.7661 0001074 57.7913 79.0045 15.06384419 1793

Live tracking and technical data element details for STARLINK-1720 (NORAD 46675). STARLINK-1720 can be tracked NOW for your location showing map with azimuth and elevation plus other details from your city location.

Track the satellite on the map from your city or location and see movement details for azimuth, elevation, latitude, longitude, range, height, and movement on the map or in text.







IsCatalogInMostPopularTable: catalog: 46675, numindb: 26
Update: records affected: 1



GetName: 46675 STARLINK-1720

Hit Count: updated at: Tue, 19 Jan 2021 02:57:15 GMT